[ ตารางข้อมูล ] [ Min-Max ] [ วันนี้4 ] [ วันนี้2 ] [ เทียบ3วัน A ] [ เทียบ4วัน B ]   

วันนี้2   [ ◀ ช่วงเก่ากว่า ] [ ช่วงที่ 210 ] [ ช่วงใหม่กว่า ▶ ] [ ล่าสุด ]    [ 3 ชั่วโมง ] [ 6 ชั่วโมง ] [ 12 ชั่วโมง ] [ 24 ชั่วโมง ]   วันนี้2

อุณภูมิตู้ Knockdown4529  ราย 3 ชั่วโมง  ที่วัดได้ ในช่วงวันเวลา 09/04/2026 (03:40) ถึง 09/04/2026 (06:40) 
ความชื้นในตู้ Knockdown4529  ราย 3 ชั่วโมง  ที่วัดได้ ในช่วงวันเวลา 09/04/2026 (03:40) ถึง 09/04/2026 (06:40) 

 
DS18B20SHTC3 
IDDate d/m/Y & Timedata1
สูง
data2
ต่ำ
data3
นอก
temp
pcb
hum
pcb
Time
 10171  09/04/2026 06:40:25  28.1  28.2  26.2  28.1  70.1  06:40 
 10170  09/04/2026 06:35:43  28.1  28.2  26.2  28.1  70.2  06:35 
 10169  09/04/2026 06:31:01  28.1  28.2  26.0  28.1  70.2  06:31 
 10168  09/04/2026 06:26:19  28.2  28.2  25.9  28.1  70.1  06:26 
 10167  09/04/2026 06:21:37  28.2  28.3  25.8  28.4  70.3  06:21 
 10166  09/04/2026 06:16:56  28.2  28.3  26.0  28.1  70.2  06:16 
 10165  09/04/2026 06:12:15  28.2  28.3  25.8  28.1  70.1  06:12 
 10164  09/04/2026 06:07:33  28.2  28.4  26.0  28.1  70.2  06:07 
 10163  09/04/2026 06:02:49  28.2  28.4  26.1  28.2  70.2  06:02 
 10162  09/04/2026 05:58:06  28.3  28.4  26.0  28.2  70.2  05:58 
 10161  09/04/2026 05:53:24  28.3  28.4  26.0  28.4  70.1  05:53 
 10160  09/04/2026 05:48:42  28.4  28.5  26.0  28.4  70.2  05:48 
 10159  09/04/2026 05:44:00  28.4  28.5  26.0  28.4  70.1  05:44 
 10158  09/04/2026 05:39:17  28.4  28.5  25.7  28.3  70.1  05:39 
 10157  09/04/2026 05:34:35  28.4  28.6  25.8  28.4  70.1  05:34 
 10156  09/04/2026 05:29:54  28.4  28.6  25.6  28.4  70.1  05:29 
 10155  09/04/2026 05:25:12  28.4  28.6  25.7  28.6  70.0  05:25 
 10154  09/04/2026 05:20:30  28.5  28.6  25.7  28.6  70.1  05:20 
 10153  09/04/2026 05:15:49  28.6  28.7  25.7  28.6  70.0  05:15 
 10152  09/04/2026 05:11:08  28.6  28.7  25.6  28.5  70.1  05:11 
 10151  09/04/2026 05:06:24  28.6  28.7  26.0  28.4  70.0  05:06 
 10150  09/04/2026 05:01:43  28.6  28.8  25.8  28.5  70.0  05:01 
 10149  09/04/2026 04:57:02  28.6  28.8  26.4  28.6  70.0  04:57 
 10148  09/04/2026 04:52:19  28.6  28.8  26.1  28.6  70.1  04:52 

Data every 5 minute.


ใช้เวลาประมวลผล 0.00190 วินาที